Weather in Aguascalientes

Mexico     21°52′42″N   102°17′49″W
temp.,
°C
wind,
m/s
gust,
m/s
humid.,
%
clouds,
%
prec.,
mm/h
press.,
hPa
HPBL,
m
8 may, sat
sat801:00+17ene246064 0.0 1016104
04:00+18nnw115774 0.0 1015146
07:00+17ese225580 0.0 1016202
10:00+21s11453 0.0 1016870
13:00+26s22297 0.0 10122274
16:00+29s332198 0.0 10083183
19:00+26nnw552899 0.1 10081523
22:00+23nnw3639100 0.0 1011294
9 may, sun
sun901:00+21sse4545100 0.2 1013627
04:00+20s235299 0.1 1013242
07:00+19sw235695 0.4 1014206
10:00+22ssw324827 0.0 1014865
13:00+27sse2230100 0.0 10112601
16:00+25nw4333100 0.3 10091254
19:00+25ne5632100 1.0 1008737
22:00+21ssw6750100 0.2 1012350
10 may, mon
mon1001:00+19ssw5763100 1.3 1015565
04:00+17s5770100 1.4 1014586
07:00+17s4569100 2.1 1015491
10:00+17sw2371100 0.3 1015336
13:00+23sw4343100 0.4 10131779
16:00+23wnw3242100 0.2 10101512
19:00+20nne5559100 0.6 1012427
22:00+19ene2262100 0.0 101284
11 may, tue
tue1101:00+19n1166100 0.6 101453
04:00+18ne1271100 1.1 101396
07:00+18se2269100 3.0 101341
10:00+20ese115692 2.1 1014360
13:00+23ene434667 3.4 10131356
16:00+22e224873 0.7 1011832
19:00+18sw2276100 2.5 1013227
22:00+19ese336794 1.5 1014287
12 may, wed
wed1201:00+19s226649 1.5 1014166
04:00+18s2271100 0.0 101435
07:00+18ssw117091 0.1 101439
10:00+20wnw125714 1.0 1015296
13:00+24nw223797 1.6 10132301
16:00+26nnw433199 0.1 10112409
19:00+25nnw55336 0.3 10101480
22:00+21nne354852 0.2 1014135